| time (UTC) | temp C | wind direction | speed KPH | gust KPH | rain 1hr cm | rain 24hr cm | rain mn cm | humidity % | barometer mb |
| 20260507031538 | 10 | 20 | 0.0 | 0.0 | 0.00 | 0.00 | 0.00 | 67 | 1018.3 |
| 20260507030037 | 11 | 17 | 0.0 | 0.0 | 0.00 | 0.00 | 0.00 | 67 | 1017.9 |
| 20260507024539 | 11 | 15 | 0.0 | 0.0 | 0.00 | 0.00 | 0.00 | 65 | 1017.7 |
| 20260507023035 | 12 | 17 | 0.0 | 0.0 | 0.00 | 0.00 | 0.00 | 65 | 1017.5 |
| 20260507021533 | 12 | 15 | 0.0 | 0.0 | 0.00 | 0.00 | 0.00 | 63 | 1017.4 |
| 20260507020043 | 13 | 13 | 0.0 | 4.8 | 0.00 | 0.00 | 0.00 | 59 | 1017.2 |
| 20260507014535 | 13 | 54 | 1.6 | 4.8 | 0.00 | 0.00 | 0.00 | 57 | 1016.9 |
| 20260507013033 | 14 | 54 | 1.6 | 8.0 | 0.00 | 0.00 | 0.00 | 56 | 1016.8 |
| 20260507011532 | 15 | 61 | 1.6 | 8.0 | 0.00 | 0.00 | 0.00 | 55 | 1016.5 |
| 20260507010032 | 15 | 63 | 3.2 | 8.0 | 0.00 | 0.00 | 0.00 | 53 | 1016.4 |
| 20260507004533 | 15 | 62 | 1.6 | 6.4 | 0.00 | 0.00 | 0.00 | 54 | 1016.4 |
| 20260507003032 | 16 | 360 | 1.6 | 8.0 | 0.00 | 0.00 | 0.00 | 54 | 1016.4 |
| 20260507001536 | 17 | 59 | 3.2 | 11.3 | 0.00 | 0.00 | 0.00 | 52 | 1016.3 |
| 20260507000029 | 16 | 62 | 1.6 | 9.7 | 0.00 | 0.00 | 0.00 | 51 | 1016.2 |
| 20260506234527 | 17 | 37 | 3.2 | 14.5 | 0.00 | 0.00 | 0.00 | 51 | 1016.0 |
| 20260506233026 | 17 | 38 | 6.4 | 19.3 | 0.00 | 0.00 | 0.00 | 48 | 1015.9 |
| 20260506231528 | 17 | 61 | 4.8 | 16.1 | 0.00 | 0.00 | 0.00 | 49 | 1015.8 |
| 20260506230026 | 18 | 46 | 0.0 | 17.7 | 0.00 | 0.00 | 0.00 | 50 | 1015.5 |
| 20260506224524 | 18 | 47 | 1.6 | 14.5 | 0.00 | 0.00 | 0.00 | 51 | 1015.5 |
| 20260506223023 | 18 | 70 | 3.2 | 16.1 | 0.00 | 0.00 | 0.00 | 50 | 1015.3 |
| 20260506221522 | 17 | 63 | 8.0 | 16.1 | 0.00 | 0.00 | 0.00 | 48 | 1015.1 |
| 20260506220023 | 17 | 19 | 4.8 | 14.5 | 0.00 | 0.00 | 0.00 | 49 | 1015.1 |
| 20260506214520 | 17 | 52 | 3.2 | 16.1 | 0.00 | 0.00 | 0.00 | 51 | 1015.2 |
| 20260506213020 | 17 | 55 | 3.2 | 17.7 | 0.00 | 0.00 | 0.00 | 51 | 1015.3 |
| 20260506211517 | 17 | 43 | 8.0 | 16.1 | 0.00 | 0.00 | 0.00 | 52 | 1015.6 |
| 20260506210021 | 17 | 24 | 6.4 | 14.5 | 0.00 | 0.00 | 0.00 | 52 | 1015.7 |
| 20260506204515 | 17 | 38 | 6.4 | 17.7 | 0.00 | 0.00 | 0.00 | 52 | 1015.9 |
| 20260506203012 | 17 | 55 | 3.2 | 16.1 | 0.00 | 0.00 | 0.00 | 53 | 1016.0 |
| 20260506201510 | 17 | 111 | 3.2 | 16.1 | 0.00 | 0.00 | 0.00 | 59 | 1016.2 |
| 20260506200009 | 16 | 59 | 8.0 | 16.1 | 0.00 | 0.00 | 0.00 | 56 | 1016.3 |
| 20260506194506 | 16 | 11 | 6.4 | 14.5 | 0.00 | 0.00 | 0.00 | 57 | 1016.4 |
| 20260506193007 | 15 | 55 | 3.2 | 12.9 | 0.00 | 0.00 | 0.00 | 58 | 1016.6 |
| 20260506191506 | 15 | 69 | 4.8 | 16.1 | 0.00 | 0.00 | 0.00 | 59 | 1016.7 |
| 20260506190005 | 15 | 26 | 8.0 | 16.1 | 0.00 | 0.00 | 0.00 | 57 | 1016.7 |
| 20260506184503 | 16 | 74 | 3.2 | 12.9 | 0.00 | 0.00 | 0.00 | 57 | 1016.9 |
| 20260506183002 | 16 | 104 | 1.6 | 11.3 | 0.00 | 0.00 | 0.00 | 58 | 1016.9 |
| 20260506181501 | 16 | 89 | 3.2 | 12.9 | 0.00 | 0.00 | 0.00 | 58 | 1017.1 |
| 20260506180001 | 15 | 96 | 3.2 | 19.3 | 0.00 | 0.00 | 0.00 | 57 | 1017.3 |
| 20260506174559 | 16 | 35 | 4.8 | 14.5 | 0.00 | 0.00 | 0.00 | 56 | 1017.2 |
| 20260506173059 | 16 | 55 | 4.8 | 12.9 | 0.00 | 0.00 | 0.00 | 57 | 1017.4 |
| 20260506171558 | 15 | 54 | 6.4 | 16.1 | 0.00 | 0.00 | 0.00 | 58 | 1017.6 |
| 20260506170057 | 15 | 62 | 3.2 | 16.1 | 0.00 | 0.00 | 0.00 | 57 | 1017.5 |
| 20260506164558 | 15 | 71 | 6.4 | 19.3 | 0.00 | 0.00 | 0.00 | 58 | 1017.4 |
| 20260506163054 | 15 | 109 | 4.8 | 17.7 | 0.00 | 0.00 | 0.00 | 59 | 1017.6 |
| 20260506161558 | 14 | 118 | 6.4 | 16.1 | 0.00 | 0.00 | 0.00 | 59 | 1017.8 |
| 20260506160047 | 13 | 78 | 1.6 | 12.9 | 0.00 | 0.00 | 0.00 | 63 | 1017.5 |
| 20260506154556 | 13 | 77 | 3.2 | 16.1 | 0.00 | 0.00 | 0.00 | 63 | 1017.6 |
| 20260506153041 | 12 | 52 | 8.0 | 22.5 | 0.00 | 0.00 | 0.00 | 65 | 1017.2 |
| 20260506151538 | 12 | 116 | 4.8 | 16.1 | 0.00 | 0.00 | 0.00 | 67 | 1017.2 |
| 20260506150034 | 11 | 53 | 6.4 | 17.7 | 0.00 | 0.00 | 0.00 | 71 | 1017.3 |
| 20260506144529 | 10 | 57 | 3.2 | 17.7 | 0.00 | 0.00 | 0.00 | 73 | 1017.1 |
| 20260506143028 | 10 | 59 | 4.8 | 16.1 | 0.00 | 0.00 | 0.00 | 75 | 1016.8 |
| 20260506141525 | 10 | 61 | 4.8 | 17.7 | 0.00 | 0.00 | 0.00 | 77 | 1016.9 |
| 20260506140028 | 9 | 13 | 6.4 | 17.7 | 0.00 | 0.00 | 0.00 | 77 | 1016.9 |
| 20260506134521 | 9 | 47 | 6.4 | 19.3 | 0.00 | 0.00 | 0.00 | 78 | 1016.9 |
| 20260506133039 | 9 | 50 | 3.2 | 19.3 | 0.00 | 0.00 | 0.00 | 80 | 1016.9 |
| 20260506131525 | 8 | 38 | 8.0 | 17.7 | 0.00 | 0.00 | 0.00 | 80 | 1017.1 |
| 20260506130019 | 8 | 15 | 3.2 | 12.9 | 0.00 | 0.00 | 0.00 | 81 | 1016.9 |
| 20260506124516 | 8 | 57 | 4.8 | 16.1 | 0.00 | 0.00 | 0.00 | 80 | 1016.8 |
| 20260506123014 | 8 | 43 | 6.4 | 17.7 | 0.00 | 0.00 | 0.00 | 81 | 1016.5 |
| 20260506121512 | 8 | 25 | 3.2 | 14.5 | 0.00 | 0.00 | 0.00 | 82 | 1016.1 |
| 20260506120018 | 8 | 68 | 6.4 | 12.9 | 0.00 | 0.00 | 0.00 | 81 | 1015.5 |
| 20260506114510 | 8 | 28 | 4.8 | 14.5 | 0.00 | 0.00 | 0.00 | 81 | 1015.5 |
| 20260506113011 | 8 | 52 | 3.2 | 14.5 | 0.00 | 0.00 | 0.00 | 81 | 1015.4 |
| 20260506111507 | 8 | 24 | 4.8 | 9.7 | 0.00 | 0.00 | 0.00 | 81 | 1015.2 |
| 20260506110005 | 8 | 40 | 1.6 | 8.0 | 0.00 | 0.00 | 0.00 | 80 | 1015.0 |
| 20260506104506 | 8 | 57 | 6.4 | 14.5 | 0.00 | 0.00 | 0.00 | 79 | 1014.9 |
| 20260506103107 | 9 | 51 | 4.8 | 12.9 | 0.00 | 0.00 | 0.00 | 78 | 1015.7 |
| 20260506101559 | 9 | 33 | 3.2 | 8.0 | 0.00 | 0.00 | 0.00 | 78 | 1015.3 |
| 20260506094555 | 9 | 28 | 4.8 | 17.7 | 0.00 | 0.00 | 0.00 | 77 | 1015.1 |
| 20260506093052 | 9 | 23 | 6.4 | 14.5 | 0.00 | 0.00 | 0.00 | 77 | 1014.6 |
| 20260506091551 | 9 | 27 | 3.2 | 14.5 | 0.00 | 0.00 | 0.00 | 77 | 1014.1 |
| 20260506090047 | 9 | 22 | 6.4 | 16.1 | 0.00 | 0.00 | 0.00 | 76 | 1013.9 |
| 20260506084546 | 9 | 41 | 4.8 | 17.7 | 0.00 | 0.00 | 0.00 | 75 | 1014.0 |
| 20260506083043 | 9 | 68 | 8.0 | 14.5 | 0.00 | 0.00 | 0.00 | 73 | 1013.6 |
| 20260506081539 | 9 | 40 | 9.7 | 17.7 | 0.00 | 0.00 | 0.00 | 73 | 1013.2 |
| 20260506073036 | 8 | 40 | 1.6 | 9.7 | 0.00 | 0.00 | 0.00 | 74 | 1012.7 |
| 20260506071533 | 8 | 46 | 3.2 | 12.9 | 0.00 | 0.00 | 0.00 | 73 | 1012.4 |
| 20260506061529 | 9 | 61 | 3.2 | 6.4 | 0.00 | 0.00 | 0.00 | 73 | 1012.5 |
| 20260506044520 | 9 | 58 | 3.2 | 14.5 | 0.00 | 0.00 | 0.00 | 72 | 1012.2 |
| 20260506043018 | 9 | 56 | 4.8 | 14.5 | 0.00 | 0.00 | 0.00 | 73 | 1012.3 |
| 20260506041517 | 9 | 24 | 3.2 | 9.7 | 0.00 | 0.00 | 0.00 | 73 | 1012.4 |
| 20260506040032 | 9 | 61 | 8.0 | 19.3 | 0.00 | 0.00 | 0.00 | 73 | 1012.2 |
| 20260506034514 | 9 | 77 | 6.4 | 17.7 | 0.00 | 0.00 | 0.00 | 76 | 1012.0 |
| 20260506033011 | 9 | 28 | 4.8 | 25.7 | 0.00 | 0.00 | 0.00 | 78 | 1011.9 |